DELTA 1 DEB, 42086

Orbit data source: Space-Track

DELTA 1 DEB, 42086 is space debris in LEO originally from a launch on Sun, 15 Dec 1968 UTC launched from the Air Force Western Test Range (AFWTR). Debris objects in space refer to the collection of defunct objects orbiting the Earth. Examples of debris include non-operational satellites, rocket bodies, and fragments generated from explosions, collisions, or faulty payload assembly.

Loading next visibility...
Identifier
42086, 1968-114N
Orbit
LEO
Last TLE update
6 months ago
Origin
Manufacturer
Aerojet
Mission
Spacecraft
Bus & Motor
Unknown
Mass
Unknown
Launch date (UTC)
1968-12-15 (56 years ago)
Launch vehicle
Unknown
Launch site
Air Force Western Test Range (AFWTR)
Object type
Payload
Rocket body
Debris
Shape & HBR
Unknown
Radar Cross Section
Small (<0.1 m²)

Expand to show TLE details & history

TLE from 6 months ago
0 DELTA 1 DEB
1 42086U 68114N   24319.19582241  .00000262  00000-0  34376-2 0  9996
2 42086 102.1159 281.4662 0349523 353.7041  16.6135 11.92868117143913
Epoch: 2024-11-14T04:41Z
Definitive object data (Epoch: 2024-11-14T04:41:59.056Z)
Latitude
11.21248°
Longitude
154.76178°
Altitude
1,444.502 km
Speed
7.259 km/s
True Right ascension
18h 36m 09s
True Declination
11° 09' 10"
Sunlit
Object was in daylight at TLE epoch
Visualization TLE readout
Latitude
13.54847°
Longitude
-45.27612°
Altitude
1,498.279 km
Speed
7.211 km/s
Apparent Right ascension
05h 21m 15s
Apparent Declination
-10° 05' 53"
Sunlit
Object is in full shadow
Visualization observer readout
Local Sidereal Time
17:29:29
Azimuth
4.064° NNE
Elevation
-60.126°
Doppler factor
1
Orbital elements
Apogee altitude
1,993.309 km
Perigee altitude
1,427.87 km
Semi-major axis
8,088.727 km
Eccentricity
0.0349523
Inclination
102.1159°
RAAN
281.4662°
Arg. of periapsis
353.7041°
True anomaly
17.80851°
Mean anomaly
16.6135°
Eccentric anomaly
17.20589°
Mean motion
2.98348 °/min
BSTAR
0.0034376
Orbital period
120.66 mins
Loading maneuver chart data...
Loading SW <> Apogee altitude chart data...
Loading historical data...
Loading historical data...
Loading historical data...
Loading historical data...
Loading historical data...
Loading historical data...
Loading historical data...

DELTA 1 DEB Visibility forecast

Observer location: undefined°, undefined°

Span
Click to sort rows by Start time (UTC) header in descending order
Start Az.
Max El. time (UTC)
Max El. Az.
Max El.
End time (UTC)
End Az.
18 mins2025-05-09 09:51:10.355Z17.588° NNE2025-05-09 10:00:10.355Z201.392° SSW44.943°2025-05-09 10:09:10.355Z200.648° SSW
11 mins2025-05-09 11:52:10.355Z347.63° N2025-05-09 11:57:10.355Z308.482° NW20.804°2025-05-09 12:03:10.355Z265.441° W
13 mins2025-05-09 19:28:10.355Z120.247° SE2025-05-09 19:34:10.355Z58.179° ENE32.715°2025-05-09 19:41:10.355Z356.148° N
13 mins2025-05-09 21:26:10.355Z195.064° SSW2025-05-09 21:32:10.355Z255.844° W34.219°2025-05-09 21:39:10.355Z326.436° NNW
11 mins2025-05-10 08:05:10.355Z58.217° ENE2025-05-10 08:10:10.355Z97.532° ESE20.602°2025-05-10 08:16:10.355Z138.287° SSE
|